Regional Weather Roundup
Issued by NWS

Home | Current Version | Previous Version | Graphics & Text | Print | Product List | Glossary On
Versions: 1 2 3 4 5 6 7 8 9 10 11 12 13 14 15 16 17 18 19 20 21 22 23 24 25 26 27 28 29 30 31 32 33 34 35 36 37 38 39 40 41 42 43 44 45 46 47 48 49 50
000
ASUS43 KDMX 280201
RWRIA

WEATHER ROUNDUP FOR IOWA
NATIONAL WEATHER SERVICE DES MOINES IA
900 PM CDT SUN MAY 27 2018

NOTE: "FAIR" INDICATES FEW OR NO CLOUDS BELOW 12,000 FEET WITH NO
SIGNIFICANT WEATHER AND/OR OBSTRUCTIONS TO VISIBILITY.

* - THESE STATIONS ARE NOT NWS STATIONS...THUS NOT UNDER NWS
QUALITY CONTROL.  THEY ALSO DO NOT REPORT WEATHER SUCH
AS PRECIPITATION OR FOG.

IAZ001>003-012>014-020>022-031>034-043>046-280300-
   NORTHWEST IOWA

CITY           SKY/WX    TMP DP  RH WIND       PRES   REMARKS
CARROLL *      PTCLDY    88  57  35 S8        29.81F HX  86
CHEROKEE *     MOCLDY    82  61  48 SW6       29.80F HX  82
DENISON *      PTCLDY    84  66  54 SE5       29.84S HX  86
LE MARS *      PTCLDY    88  57  35 S6        29.80R HX  86
ORANGE CITY *  MOCLDY    88  55  33 S7        29.81R HX  86
SHELDON *      PTCLDY    91  55  29 SW8       29.79R HX  89
SIOUX CITY     PTCLDY    84  59  42 S8        29.80R HX  84
SPENCER        CLOUDY    86  60  41 S7        29.81R HX  86
STORM LAKE *   MOCLDY    86  57  37 SW6       29.82F HX  85
$$

IAZ055>058-069>071-079>083-090>094-280300-
   SOUTHWEST IOWA

CITY           SKY/WX    TMP DP  RH WIND       PRES   REMARKS
ATLANTIC *     CLEAR     86  63  45 CALM      29.83R HX  87
AUDUBON *      CLOUDY    84  64  51 S3        29.85S HX  86
CLARINDA *       N/A     86  66  51 SW5       29.85R HX  88
COUNCIL BLFS * CLEAR     90  61  37 SW5       29.84R HX  89
CRESTON *      CLOUDY    86  66  51 S7        29.86S HX  88
HARLAN  *      PTCLDY    84  63  48 CALM      29.87R HX  85
LAMONI         CLOUDY    87  70  56 S6        29.84F HX  92
RED OAK *      PTCLDY    84  64  51 SW8       29.84R HX  86
SHENANDOAH *   CLEAR     86  61  42 S7        29.83R HX  86
$$

IAZ047>049-059>061-072>074-084-280300-
   CENTRAL IOWA

CITY           SKY/WX    TMP DP  RH WIND       PRES   REMARKS
AMES           CLOUDY    86  64  47 SE6       29.82S HX  87
ANKENY *       PTCLDY    84  70  61 S3        29.83F HX  88
BOONE *        CLOUDY    82  63  51 S5        29.81F HX  83
CHARITON *     CLOUDY    84  70  61 SE6       29.86R HX  88
DES MOINES     CLOUDY    88  68  51 SE8       29.82S HX  91
GRINNELL*      MOCLDY    84  64  50 S5        29.87R HX  86
KNOXVILLE *    PTCLDY    86  64  48 S6        29.83S HX  87
MARSHALLTOWN   PTCLDY    84  64  50 E6        29.84R HX  85
NEWTON *       MOCLDY    86  66  51 S5        29.85R HX  88
PELLA *        CLOUDY    84  65  51 CALM      29.85S HX  86
PERRY *        FAIR      85  55  36 SE8       29.82F HX  83
$$

IAZ004>006-015-016-023>025-035-036-280300-
   NORTH CENTRAL IOWA

CITY           SKY/WX    TMP DP  RH WIND       PRES   REMARKS
ALGONA *       CLOUDY    86  59  39 SE9       29.82S HX  85
CLARION *      CLOUDY    88  55  33 SE9       29.83F HX  86
ESTHERVILLE    CLOUDY    87  57  35 S16       29.80R HX  86
FORT DODGE *   CLOUDY    84  60  44 S7        29.83S HX  84
MASON CITY     CLOUDY    86  58  38 SE12      29.86R HX  85
FOREST CITY *  FAIR      84  57  39 SE8       29.84S HX  83
WEBSTER CITY * CLOUDY    82  61  47 SE7       29.80F HX  83
IOWA FALLS *   FAIR      82  61  49 E7        29.86S HX  82
$$

IAZ007>011-017>019-026>030-037>042-050>054-066-280300-
   NORTHEAST IOWA

CITY           SKY/WX    TMP DP  RH WIND       PRES   REMARKS
CEDAR RAPIDS   FAIR      80  68  66 SE3       29.86R HX  83
CHARLES CITY * FAIR      82  59  44 SE8       29.87R HX  82
DECORAH *      FAIR      82  57  42 SE3       29.87R HX  82
DUBUQUE        FAIR      80  66  62 SW3       29.88R HX  82
MONTICELLO *   FAIR      81  68  65 CALM      29.86R HX  83
OELWEIN *      FAIR      82  61  47 E6        29.88R HX  83
WATERLOO       FAIR      80  62  54 SE5       29.84R HX  81
$$

IAZ064-065-067-068-078-280300-
   EAST CENTRAL IOWA

CITY           SKY/WX    TMP DP  RH WIND       PRES   REMARKS
DAVENPORT        N/A     81  69  67 SE3       29.88R HX  84
IOWA CITY      FAIR      84  66  54 SE5       29.86R HX  86
MUSCATINE *    FAIR      77  73  88 CALM      29.85S
QUAD CITIES    FAIR      82  68  62 CALM      29.85S HX  85
$$

IAZ062-063-075>077-085>089-095>099-280300-
   SOUTHEAST IOWA

CITY           SKY/WX    TMP DP  RH WIND       PRES   REMARKS
BURLINGTON     CLOUDY    81  70  69 SE3       29.87R HX  84
FAIRFIELD *    CLOUDY    82  66  57 SE8       29.85S HX  85
FORT MADISON * CLOUDY    81  72  74 CALM      29.88R HX  84
KEOKUK *       CLOUDY    77  72  83 SE3       29.86R
OSKALOOSA *    FAIR      85  62  46 S5        29.85S HX  85
CENTERVILLE *  FAIR      81  77  89 CALM      29.87R HX  88
OTTUMWA        CLOUDY    82  67  60 S7        29.83S HX  84
WASHINGTON *   PTCLDY    82  73  74 S7        29.86S HX  88
$$

ABBREVIATIONS USED IN REMARKS
   TC - TEMPERATURES IN CELSIUS
  WCI - WIND CHILL INDEX
   HX - HEAT INDEX
  VSB - VISIBILITY
$$




USA.gov is the U.S. government's official web portal to all federal, state and local government web resources and services.